• In Belarus
  • List of Countries
  • For 7 days
  • Water Temperature
  • Satellite Maps
  • Weather Map
  • Weather Widgets
  • user-avatar
    Login

    Hourly Weather Zarki

    Today, 22 February, Friday

    Time Temperature Precipitation Wind Pressure Humidity
    00:00 +6°C° 0.3 mm 5 mps 754 mmHg 92%
    01:00 +6°C° 0 mm 4 mps 755 mmHg 93%
    02:00 +5°C° 0.3 mm 5 mps 755 mmHg 91%
    03:00 +4°C° 0.3 mm 6 mps 756 mmHg 89%
    04:00 +3°C° 0.3 mm 7 mps 756 mmHg 87%
    05:00 +2°C° 0 mm 7 mps 758 mmHg 83%
    06:00 -1°C° 0 mm 7 mps 759 mmHg 80%
    07:00 -1°C° 0 mm 5 mps 761 mmHg 76%
    08:00 -2°C° 0 mm 6 mps 762 mmHg 70%
    09:00 -3°C° 0 mm 6 mps 763 mmHg 63%
    10:00 -3°C° 0 mm 6 mps 764 mmHg 57%
    11:00 -2°C° 0 mm 6 mps 765 mmHg 52%
    12:00 -1°C° 0 mm 5 mps 766 mmHg 47%
    13:00 -1°C° 0 mm 5 mps 767 mmHg 41%
    14:00 -1°C° 0 mm 5 mps 767 mmHg 42%
    15:00 -1°C° 0 mm 5 mps 767 mmHg 42%
    16:00 -2°C° 0 mm 5 mps 768 mmHg 42%
    17:00 -2°C° 0 mm 4 mps 768 mmHg 45%
    18:00 -3°C° 0 mm 4 mps 769 mmHg 49%
    19:00 -4°C° 0 mm 3 mps 770 mmHg 53%
    20:00 -4°C° 0 mm 3 mps 770 mmHg 52%
    21:00 -4°C° 0 mm 3 mps 771 mmHg 52%
    22:00 -5°C° 0 mm 3 mps 771 mmHg 51%
    23:00 -5°C° 0 mm 3 mps 772 mmHg 50%

    Tomorrow, 23 February, Saturday

    Time Temperature Precipitation Wind Pressure Humidity
    00:00 -4°C° 0 mm 2 mps 772 mmHg 49%
    01:00 -4°C° 0 mm 2 mps 772 mmHg 48%
    02:00 -4°C° 0 mm 2 mps 772 mmHg 48%
    03:00 -4°C° 0 mm 2 mps 772 mmHg 47%
    04:00 -2°C° 0 mm 1 mps 772 mmHg 47%
    05:00 -2°C° 0 mm 1 mps 772 mmHg 46%
    06:00 -2°C° 0 mm 1 mps 772 mmHg 46%
    07:00 -2°C° 0 mm 1 mps 772 mmHg 45%
    08:00 -1°C° 0 mm 1 mps 772 mmHg 41%
    09:00 -3°C° 0 mm 2 mps 772 mmHg 36%
    10:00 -2°C° 0 mm 2 mps 772 mmHg 32%
    11:00 -1°C° 0 mm 2 mps 772 mmHg 29%
    12:00 +1°C° 0 mm 2 mps 772 mmHg 27%
    13:00 +2°C° 0 mm 2 mps 771 mmHg 24%
    14:00 +2°C° 0 mm 2 mps 771 mmHg 26%
    15:00 +3°C° 0 mm 1 mps 771 mmHg 27%
    16:00 +3°C° 0 mm 1 mps 770 mmHg 28%
    17:00 +2°C° 0 mm 1 mps 770 mmHg 31%
    18:00 +1°C° 0 mm 1 mps 770 mmHg 34%
    19:00 -2°C° 0 mm 2 mps 770 mmHg 37%
    20:00 -2°C° 0 mm 2 mps 770 mmHg 38%
    21:00 -3°C° 0 mm 2 mps 770 mmHg 39%
    22:00 -3°C° 0 mm 2 mps 769 mmHg 41%
    23:00 -3°C° 0 mm 2 mps 769 mmHg 41%

    Day after tomorrow, 24 February, Sunday

    Time Temperature Precipitation Wind Pressure Humidity
    00:00 -3°C° 0 mm 2 mps 769 mmHg 41%
    01:00 -3°C° 0 mm 2 mps 769 mmHg 41%
    02:00 -3°C° 0 mm 2 mps 769 mmHg 40%
    03:00 0°C° 0 mm 1 mps 769 mmHg 38%
    04:00 0°C° 0 mm 1 mps 768 mmHg 37%
    05:00 0°C° 0 mm 1 mps 768 mmHg 36%
    06:00 +1°C° 0 mm 1 mps 768 mmHg 35%
    07:00 +1°C° 0 mm 1 mps 768 mmHg 35%
    08:00 +1°C° 0 mm 2 mps 768 mmHg 34%
    09:00 +2°C° 0 mm 2 mps 768 mmHg 32%
    10:00 +3°C° 0 mm 2 mps 768 mmHg 31%
    11:00 +3°C° 0 mm 3 mps 768 mmHg 31%
    12:00 +5°C° 0 mm 3 mps 767 mmHg 30%
    13:00 +7°C° 0 mm 3 mps 767 mmHg 30%
    14:00 +5°C° 0 mm 3 mps 767 mmHg 34%
    15:00 +5°C° 0 mm 3 mps 767 mmHg 38%
    16:00 +5°C° 0 mm 3 mps 767 mmHg 43%
    17:00 +4°C° 0 mm 3 mps 767 mmHg 46%
    18:00 +3°C° 0 mm 3 mps 767 mmHg 50%
    19:00 +2°C° 0 mm 3 mps 767 mmHg 54%
    20:00 +1°C° 0 mm 3 mps 767 mmHg 56%
    21:00 +1°C° 0 mm 3 mps 767 mmHg 59%
    22:00 +1°C° 0 mm 3 mps 767 mmHg 62%
    23:00 0°C° 0 mm 3 mps 767 mmHg 64%

    25 February, Monday

    Time Temperature Precipitation Wind Pressure Humidity
    00:00 0°C° 0 mm 3 mps 768 mmHg 66%
    01:00 0°C° 0 mm 3 mps 768 mmHg 69%
    02:00 0°C° 0 mm 3 mps 767 mmHg 71%
    03:00 -1°C° 0 mm 3 mps 767 mmHg 74%
    04:00 -1°C° 0 mm 3 mps 767 mmHg 76%
    05:00 -1°C° 0 mm 3 mps 767 mmHg 78%
    06:00 -1°C° 0 mm 3 mps 767 mmHg 79%
    07:00 -1°C° 0 mm 3 mps 767 mmHg 81%
    08:00 0°C° 0 mm 3 mps 768 mmHg 77%
    09:00 +2°C° 0 mm 3 mps 768 mmHg 72%
    10:00 +3°C° 0 mm 3 mps 768 mmHg 68%
    11:00 +5°C° 0 mm 3 mps 768 mmHg 67%
    12:00 +7°C° 0 mm 3 mps 768 mmHg 65%
    13:00 +8°C° 0 mm 3 mps 768 mmHg 64%
    14:00 +9°C° 0 mm 3 mps 767 mmHg 65%
    15:00 +9°C° 0 mm 2 mps 767 mmHg 66%
    16:00 +9°C° 0 mm 2 mps 766 mmHg 67%
    17:00 +8°C° 0 mm 2 mps 766 mmHg 73%
    18:00 +6°C° 0 mm 2 mps 766 mmHg 78%
    19:00 +5°C° 0 mm 2 mps 766 mmHg 84%
    20:00 +4°C° 0 mm 3 mps 766 mmHg 85%
    21:00 +3°C° 0 mm 3 mps 766 mmHg 86%
    22:00 +3°C° 0 mm 3 mps 766 mmHg 87%
    23:00 +3°C° 0 mm 3 mps 766 mmHg 84%

    26 February, Tuesday

    Time Temperature Precipitation Wind Pressure Humidity
    00:00 +3°C° 0 mm 3 mps 765 mmHg 81%
    01:00 +1°C° 0 mm 4 mps 765 mmHg 78%
    02:00 +1°C° 0 mm 4 mps 765 mmHg 78%
    03:00 0°C° 0 mm 4 mps 764 mmHg 78%
    04:00 0°C° 0 mm 4 mps 764 mmHg 79%
    05:00 0°C° 0 mm 4 mps 764 mmHg 79%
    06:00 0°C° 0 mm 4 mps 764 mmHg 79%
    07:00 -1°C° 0 mm 4 mps 764 mmHg 80%
    08:00 +1°C° 0 mm 4 mps 764 mmHg 74%
    09:00 +3°C° 0 mm 5 mps 764 mmHg 68%
    10:00 +4°C° 0 mm 6 mps 764 mmHg 61%
    11:00 +7°C° 0 mm 6 mps 763 mmHg 57%
    12:00 +8°C° 0 mm 6 mps 763 mmHg 52%
    13:00 +9°C° 0 mm 6 mps 763 mmHg 47%
    14:00 +9°C° 0 mm 6 mps 762 mmHg 48%
    15:00 +10°C° 0 mm 5 mps 762 mmHg 49%
    16:00 +10°C° 0 mm 5 mps 762 mmHg 49%
    17:00 +8°C° 0 mm 4 mps 762 mmHg 55%
    18:00 +7°C° 0 mm 4 mps 762 mmHg 60%
    19:00 +7°C° 0 mm 3 mps 763 mmHg 66%
    20:00 +5°C° 0 mm 3 mps 763 mmHg 70%
    21:00 +4°C° 0 mm 3 mps 763 mmHg 73%
    22:00 +5°C° 0 mm 2 mps 763 mmHg 77%
    23:00 +4°C° 0 mm 2 mps 763 mmHg 79%

    27 February, Wednesday

    Time Temperature Precipitation Wind Pressure Humidity
    00:00 +4°C° 0 mm 2 mps 763 mmHg 81%
    01:00 +3°C° 0 mm 2 mps 762 mmHg 83%
    02:00 +3°C° 0 mm 2 mps 762 mmHg 85%
    03:00 +3°C° 0 mm 2 mps 762 mmHg 86%
    04:00 +2°C° 0 mm 2 mps 762 mmHg 88%
    05:00 +2°C° 0 mm 2 mps 762 mmHg 89%
    06:00 +2°C° 0 mm 2 mps 761 mmHg 90%
    07:00 +2°C° 0 mm 2 mps 761 mmHg 92%
    08:00 +2°C° 0 mm 3 mps 761 mmHg 85%
    09:00 +4°C° 0 mm 3 mps 761 mmHg 79%
    10:00 +7°C° 0 mm 3 mps 760 mmHg 73%
    11:00 +8°C° 0 mm 3 mps 760 mmHg 68%
    12:00 +10°C° 0 mm 4 mps 759 mmHg 63%
    13:00 +11°C° 0 mm 4 mps 759 mmHg 58%
    14:00 +12°C° 0 mm 4 mps 758 mmHg 57%
    15:00 +12°C° 0 mm 4 mps 757 mmHg 57%
    16:00 +12°C° 0 mm 3 mps 756 mmHg 57%
    17:00 +11°C° 0 mm 3 mps 756 mmHg 62%
    18:00 +10°C° 0 mm 3 mps 756 mmHg 67%
    19:00 +8°C° 0 mm 3 mps 755 mmHg 72%
    20:00 +8°C° 0 mm 3 mps 755 mmHg 73%
    21:00 +6°C° 0 mm 4 mps 754 mmHg 75%
    22:00 +6°C° 0 mm 4 mps 754 mmHg 76%
    23:00 +6°C° 0 mm 4 mps 753 mmHg 78%
    Show more